GFSMA_sfc_rhum_057.txt.gz
RH
64 62 48 81 68 62 33 66 48 50 39 39 53 50 34 35 29 34 46 68 67 69 72 72 69 70 69 67 66 67 67 68 70 71 71 70 70 70 71 72 72 73 74
66 69 44 70 60 67 60 57 57 48 46 38 42 51 52 40 42 52 43 56 70 65 63 64 64 64 65 67 64 65 63 66 68 66 65 68 72 74 73 73 75 75 76
52 74 47 74 70 52 48 44 38 33 30 39 54 50 38 48 38 44 62 47 58 72 67 66 65 65 65 65 65 66 68 67 66 66 70 74 73 72 73 74 75 76 76
57 58 58 63 40 46 54 72 41 49 31 43 60 52 52 42 39 40 60 62 60 45 68 71 72 71 70 70 70 70 72 71 72 73 74 74 75 74 73 73 74 76 76
55 51 50 54 59 43 61 43 54 48 33 38 51 41 46 37 51 31 37 43 44 62 64 77 76 73 69 67 67 68 69 70 72 74 73 73 75 74 73 74 77 79 77
52 55 68 49 50 53 37 64 43 58 48 54 26 34 44 35 32 34 33 30 35 36 55 60 64 64 77 68 71 73 70 70 70 72 73 74 74 75 77 79 77 71 60
55 58 74 53 52 61 88 48 40 47 33 37 31 32 34 32 34 30 27 28 33 31 31 35 41 48 56 76 69 68 67 68 68 72 74 75 76 78 78 75 66 60 60
57 54 77 52 55 50 54 51 52 66 38 42 61 41 44 37 28 28 27 27 32 28 31 35 37 42 39 47 64 70 67 65 72 72 72 72 73 71 68 63 61 61 62
51 53 56 69 57 63 47 57 54 64 62 35 46 52 44 70 37 29 35 30 38 35 32 37 35 39 42 40 57 62 72 73 72 69 66 65 65 59 56 58 60 62 63
50 51 57 56 62 72 69 57 56 67 68 42 34 32 53 46 60 67 31 31 33 33 36 33 34 36 41 39 56 69 78 84 77 69 63 59 59 58 58 59 61 63 63
52 46 57 57 60 52 60 71 60 63 45 59 34 34 44 33 46 61 41 34 32 29 30 35 29 29 40 37 36 58 77 81 84 82 73 67 62 59 59 60 63 64 65
47 54 51 67 61 57 60 57 61 61 71 52 44 39 34 40 47 32 31 41 33 32 27 27 31 30 30 34 44 71 76 80 83 84 82 77 72 67 61 61 63 64 66
35 59 62 63 56 63 58 59 67 67 61 54 62 37 33 32 31 32 33 31 33 30 31 28 28 30 27 31 33 58 80 81 83 85 85 82 79 77 74 71 69 67 66
33 58 58 54 58 57 58 65 55 54 61 56 60 64 38 32 31 32 35 37 38 33 34 42 28 29 31 32 46 72 44 82 82 84 86 85 81 80 79 78 77 76 76
34 40 50 56 54 54 58 64 50 63 61 60 61 62 53 36 32 32 32 34 38 42 35 46 29 36 31 29 40 42 46 71 84 84 83 85 83 80 80 80 80 81 82
54 46 50 50 55 57 58 67 56 58 63 52 47 65 64 42 38 36 35 34 35 37 40 29 28 32 33 30 40 41 40 62 83 84 86 86 84 82 80 80 80 82 81
58 60 57 56 56 56 59 68 67 56 62 64 61 56 65 67 47 37 35 36 36 36 39 34 29 37 52 60 52 50 47 48 40 82 84 85 86 84 82 81 80 80 80
60 61 62 61 58 54 59 65 62 52 58 60 60 64 58 49 70 69 49 64 49 52 42 68 52 42 57 56 57 62 46 38 42 50 84 84 87 89 88 86 84 82 80
66 55 61 66 63 57 60 62 64 62 58 58 58 61 60 63 70 56 60 50 41 48 51 50 50 42 42 40 48 56 60 56 41 56 66 79 83 86 88 89 89 88 86
68 66 63 64 62 59 56 56 59 62 61 56 57 58 59 61 68 71 65 71 64 60 55 49 46 44 41 46 40 40 41 37 39 32 44 54 64 79 83 87 87 88 90
66 67 67 64 62 54 45 58 58 59 64 61 58 58 58 62 72 73 54 67 71 61 50 48 45 40 38 37 50 42 45 43 49 43 40 42 40 41 46 80 73 86 89
68 69 66 66 64 45 60 71 62 54 60 64 64 62 60 75 72 82 86 86 85 80 80 59 49 51 68 59 47 48 52 54 60 45 58 58 53 54 51 48 67 80 87
68 72 69 66 67 65 73 74 74 49 55 60 64 64 55 39 69 58 84 85 86 88 92 80 81 75 75 73 75 79 73 69 71 62 70 65 57 62 55 44 71 77 84
71 71 70 70 69 63 78 81 78 58 56 58 59 62 66 62 60 59 58 58 64 67 75 69 77 76 76 76 78 71 77 80 72 61 74 74 57 58 50 46 75 80 82
70 68 67 72 73 70 83 84 82 57 56 63 60 60 60 63 74 82 65 68 68 65 56 77 85 86 87 87 82 68 68 73 68 62 64 74 60 58 54 56 50 67 77
67 56 62 67 74 72 91 88 82 50 57 51 64 69 79 69 81 89 73 70 74 70 63 59 57 67 89 76 91 81 69 88 83 78 68 76 67 60 64 56 52 54 65

GFSMA_sfc_rhum_060.txt.gz
RH
90 88 91 86 80 74 74 79 74 70 81 59 68 57 46 50 47 55 72 78 79 77 73 70 70 70 70 67 67 66 67 68 70 71 68 66 68 73 74 74 74 76 76
86 76 81 84 96 80 75 70 66 66 60 60 60 60 55 54 54 58 62 74 76 76 76 69 67 66 66 65 64 68 62 64 65 64 65 71 75 75 74 75 76 76 77
83 86 88 78 72 70 74 68 62 61 64 56 67 63 59 57 61 64 59 63 71 74 72 70 70 68 66 64 64 65 67 69 68 69 72 76 75 75 75 76 76 76 77
77 87 87 92 74 76 60 67 71 58 64 61 68 71 67 56 65 64 65 62 69 60 74 75 75 72 68 70 70 71 72 73 73 74 75 75 75 76 75 75 76 78 79
66 90 90 91 78 83 72 66 68 67 55 62 58 67 64 61 53 49 64 66 66 68 70 79 81 80 71 68 68 70 71 72 76 76 75 75 76 75 74 76 78 78 70
65 77 80 71 74 75 74 67 66 63 66 60 36 47 53 59 61 58 51 53 62 66 64 74 82 76 80 72 71 73 73 72 72 72 73 74 74 75 77 79 76 67 62
67 79 83 71 76 79 78 76 65 64 62 61 65 64 60 50 48 59 52 52 48 55 62 71 73 70 73 82 78 77 72 68 71 70 73 74 76 78 79 77 72 66 63
71 72 77 72 81 87 80 80 86 78 68 66 70 72 70 64 57 39 54 47 49 47 48 50 63 66 72 74 78 79 74 73 69 72 73 73 74 75 75 73 69 68 68
71 75 77 74 78 84 79 75 80 80 78 69 64 71 76 69 69 60 51 56 55 52 58 57 54 60 60 71 81 79 78 76 76 71 70 70 74 72 68 69 71 71 72
67 71 72 72 78 88 80 76 73 78 72 77 68 55 65 65 73 71 65 61 55 48 53 63 55 59 64 67 68 74 78 78 83 77 71 68 72 70 68 70 73 74 75
70 62 73 74 82 85 86 80 76 79 85 74 75 67 68 69 73 69 70 69 62 60 63 60 57 59 62 63 70 77 78 82 85 83 79 74 70 62 61 63 70 73 74
67 72 72 78 79 80 79 80 79 77 82 86 76 79 65 68 66 70 67 63 64 60 58 62 57 57 64 64 56 68 78 80 83 84 84 81 76 71 62 62 63 65 67
60 72 78 82 77 81 79 82 84 80 79 80 77 78 70 56 56 67 63 69 62 63 61 57 61 61 47 64 62 72 78 81 83 84 84 85 82 78 75 72 71 69 67
59 70 72 75 77 78 79 81 79 77 80 79 79 81 78 72 60 62 68 70 74 69 68 59 60 61 63 61 66 75 71 82 82 85 85 84 84 82 80 79 77 76 76
58 68 70 73 73 75 77 85 79 85 81 82 80 80 81 73 64 60 64 65 73 76 70 69 66 59 59 60 68 68 70 81 82 83 84 85 84 84 81 80 81 81 81
66 75 73 72 72 74 75 81 77 79 84 81 73 82 83 73 69 66 65 69 70 72 76 67 66 61 60 44 65 67 62 68 84 83 84 83 81 80 81 80 78 79 81
74 71 71 72 73 73 75 80 80 76 78 82 79 78 82 80 77 75 72 70 70 72 75 70 70 66 73 71 67 70 70 71 67 81 83 84 84 83 81 82 82 80 81
69 75 74 75 73 72 74 77 77 66 76 77 78 78 76 66 84 82 79 83 79 78 79 82 78 74 71 72 77 82 68 48 59 59 78 84 85 85 86 86 85 84 83
74 65 73 76 75 72 74 75 77 75 75 75 75 78 77 79 84 80 82 78 74 73 78 81 78 77 76 72 70 76 78 76 62 65 70 75 80 84 85 87 88 90 90
72 72 72 74 73 72 70 69 73 76 75 71 74 73 75 78 81 84 80 85 80 82 81 82 77 72 72 72 78 78 75 72 67 50 56 58 63 80 83 87 87 89 93
71 73 74 73 73 68 58 70 70 73 76 75 72 73 72 74 78 82 72 84 85 82 78 77 75 77 77 77 78 75 78 74 68 71 63 70 64 62 64 82 81 86 89
72 74 75 74 74 60 68 75 71 67 74 76 77 75 75 81 76 79 84 86 86 86 87 86 81 80 85 82 81 75 75 77 82 76 83 74 70 71 68 68 73 83 84
73 77 76 75 76 74 76 77 78 62 68 72 76 75 69 52 75 71 81 82 85 86 88 82 85 84 85 82 84 88 87 86 85 73 79 82 73 76 70 56 81 82 84
75 76 76 77 76 72 82 81 80 67 68 70 71 73 76 74 73 76 72 75 80 78 82 78 84 82 82 82 85 82 87 88 78 73 83 88 74 77 76 67 76 77 82
74 74 73 77 79 76 87 84 84 70 66 71 68 72 75 76 78 81 76 78 80 80 75 91 91 90 90 89 87 84 80 76 79 80 85 88 87 82 77 70 77 73 81
72 67 70 73 78 77 91 88 83 62 68 65 73 76 81 71 81 91 82 79 82 77 75 74 75 79 93 86 88 86 77 91 94 94 90 92 86 87 90 83 63 73 67

GFSMA_sfc_rhum_063.txt.gz
RH
94 94 95 93 88 88 88 86 88 84 92 76 67 53 53 63 74 83 96 81 82 77 73 74 72 74 72 70 68 67 68 71 72 73 68 68 74 76 76 76 76 78 78
96 95 89 90 95 92 81 88 85 79 79 69 58 60 56 58 65 79 88 89 83 82 76 70 71 70 68 66 70 71 64 65 65 65 67 74 77 76 75 77 77 77 79
87 91 94 95 91 90 79 78 70 72 72 67 72 64 65 61 60 64 75 83 83 80 77 71 73 73 68 67 65 65 67 72 72 73 76 78 77 77 77 76 77 77 80
86 92 90 90 83 83 66 63 68 66 71 74 73 72 68 68 65 64 73 74 80 69 77 77 78 77 70 69 72 73 74 79 78 78 78 77 76 78 77 76 77 79 77
85 90 88 89 88 87 77 65 73 63 69 74 62 64 69 68 64 59 71 73 78 77 82 81 82 81 71 69 70 72 73 78 80 81 81 80 79 77 76 78 80 78 65
79 89 91 85 89 79 70 81 64 67 67 60 47 57 70 70 70 72 71 66 76 75 79 83 92 90 84 74 76 77 75 78 80 79 80 80 79 78 80 82 78 69 63
79 86 89 83 86 75 83 82 78 76 62 62 68 64 65 60 58 68 62 69 72 72 77 80 90 87 84 84 82 81 75 72 74 75 77 80 80 82 84 83 78 69 67
78 80 82 86 78 84 81 78 80 76 80 66 72 78 67 59 58 53 63 56 59 67 71 74 80 80 80 86 88 83 82 77 71 73 76 79 80 81 83 82 74 72 72
77 84 81 88 85 90 91 83 72 83 84 78 67 61 70 69 76 66 58 60 56 70 63 62 72 72 80 82 83 84 83 80 77 73 73 76 80 81 78 77 74 75 75
79 78 80 82 91 90 88 81 81 82 79 79 77 59 70 68 61 68 68 63 59 58 62 69 63 59 66 81 84 84 82 83 80 80 74 73 77 76 71 72 74 76 77
80 77 79 82 87 88 88 86 80 82 89 91 82 77 67 70 65 72 74 72 70 66 63 67 64 67 61 72 74 80 83 83 81 85 83 80 76 68 63 65 70 73 74
83 88 79 85 86 90 87 86 87 80 85 89 88 88 72 69 70 70 79 76 66 62 68 65 64 66 66 67 68 73 83 81 82 85 84 83 80 75 65 62 63 65 67
86 87 83 89 88 86 88 89 87 89 88 87 91 86 84 72 64 64 72 76 68 68 61 66 65 63 59 69 69 73 81 82 84 85 85 84 83 81 78 75 72 71 69
64 79 81 84 86 88 85 90 88 90 86 92 84 88 85 73 78 67 63 69 70 76 76 60 67 63 60 68 67 78 74 84 82 84 85 86 84 83 81 79 78 76 76
68 78 82 80 85 87 88 87 89 92 90 91 90 89 90 83 79 74 66 66 69 76 74 68 68 67 64 66 68 76 71 80 84 84 84 84 83 82 81 82 83 82 80
71 79 80 76 83 86 84 89 86 89 89 86 82 90 90 87 82 84 76 70 75 72 73 75 64 66 68 56 64 71 66 76 82 83 84 84 82 81 81 81 83 82 83
82 79 82 87 84 82 88 91 86 87 88 88 85 90 86 84 82 86 89 88 78 80 76 72 77 74 74 72 68 73 72 71 70 85 85 85 85 84 83 84 84 84 84
81 79 77 78 83 84 87 88 87 77 84 89 85 87 87 77 86 87 92 86 88 88 85 81 85 74 71 69 70 70 64 60 69 70 79 82 85 86 87 86 86 87 88
75 84 81 78 78 79 84 88 88 87 85 86 84 88 85 87 91 95 91 91 90 83 92 92 88 87 85 84 78 77 77 82 74 75 79 79 80 83 84 87 89 90 92
88 75 86 80 87 78 82 85 85 89 88 86 88 86 85 86 86 88 91 92 91 93 94 96 96 94 87 76 87 86 85 85 83 63 66 70 77 83 84 87 88 89 91
64 84 78 90 80 82 73 85 85 86 83 86 86 84 85 83 88 90 87 94 94 96 97 97 97 96 95 91 92 92 95 78 76 80 82 73 76 68 72 81 86 89 91
74 65 74 80 88 70 79 83 77 86 83 80 85 88 86 84 83 86 89 90 90 96 96 98 97 97 95 96 95 96 81 97 98 86 95 74 70 79 76 84 86 84 87
69 80 72 74 78 78 84 84 83 67 75 83 80 80 81 64 84 84 87 85 84 87 86 77 90 86 90 82 90 93 91 95 93 77 91 79 78 93 78 78 85 86 85
66 64 73 77 78 75 88 86 82 68 69 70 80 82 78 74 82 81 82 80 86 77 78 80 84 74 78 80 88 82 87 95 93 83 84 96 86 89 93 79 84 82 89
72 68 70 75 79 77 92 90 84 72 67 72 74 73 82 81 86 89 86 93 93 94 86 90 90 89 88 90 90 97 98 97 91 79 94 97 96 96 95 93 80 87 84
65 71 68 72 80 77 91 92 88 68 72 68 73 78 93 81 89 90 80 75 80 78 91 86 90 94 96 91 94 94 86 98 96 97 96 96 96 95 98 95 78 86 73

GFSMA_sfc_rhum_069.txt.gz
RH
96 96 96 96 92 93 91 77 90 85 88 77 78 76 79 87 94 99 99 77 82 75 72 72 73 73 73 73 71 68 70 72 72 72 69 72 78 79 78 78 79 79 81
96 97 95 94 95 94 94 90 89 85 89 86 78 80 84 88 92 96 98 92 79 79 75 74 73 75 71 68 74 73 71 69 68 70 72 78 80 79 79 79 79 80 81
91 94 95 94 93 94 89 90 88 88 86 78 82 80 81 85 89 94 95 97 91 79 76 72 73 73 71 68 68 68 68 73 77 79 79 79 80 79 80 80 79 81 75
91 94 94 95 93 94 91 93 86 91 85 80 82 81 78 80 83 88 91 93 96 91 86 79 78 75 70 69 69 72 76 78 79 78 78 80 80 80 80 80 81 82 66
90 94 94 94 92 94 91 79 87 83 85 82 80 84 85 82 77 70 82 84 88 89 90 86 86 83 72 69 70 74 76 78 80 80 81 81 81 79 78 80 82 78 62
88 92 93 92 92 88 84 84 79 81 81 81 63 73 81 84 86 84 81 73 83 82 85 86 91 94 83 75 76 76 74 77 81 81 81 81 81 79 80 82 81 76 63
87 90 91 89 92 90 90 81 78 78 78 78 77 78 78 76 80 84 83 86 84 82 87 87 91 94 94 83 87 83 77 74 75 78 82 85 81 79 82 84 83 76 65
88 88 92 95 82 86 85 82 78 89 84 80 75 84 76 63 70 76 81 78 84 85 84 83 87 90 93 93 89 82 85 81 73 73 78 84 83 82 84 87 86 79 75
90 86 88 92 92 91 89 79 81 82 78 84 78 75 84 74 87 73 70 77 76 83 88 85 82 84 86 89 85 85 84 88 80 72 75 81 86 84 81 84 85 82 77
87 88 87 87 91 94 91 89 88 87 79 76 85 71 81 75 72 66 70 75 73 69 81 87 82 84 86 89 83 83 85 88 85 78 74 78 82 84 79 80 83 81 78
88 86 87 87 91 92 92 89 90 91 92 88 89 89 80 80 84 78 72 71 76 76 76 78 78 78 79 81 88 86 86 89 90 84 80 79 80 81 74 76 77 80 78
95 90 88 91 89 92 92 91 90 91 93 94 94 94 80 70 73 84 85 85 81 69 72 75 76 76 75 76 69 77 82 88 90 88 86 83 80 80 74 76 75 74 76
97 94 93 95 94 91 91 94 94 92 90 93 92 88 91 86 76 83 82 88 82 78 71 75 76 76 70 78 75 76 78 86 87 88 89 87 84 82 83 82 80 77 75
85 87 92 91 93 91 92 94 96 96 94 94 92 94 93 88 89 79 72 72 71 79 80 74 75 74 74 74 75 80 76 82 83 86 88 88 88 86 84 84 83 83 82
80 88 90 90 91 93 93 94 97 94 95 94 95 93 95 95 91 88 86 76 69 76 74 69 72 71 76 77 74 72 72 78 83 85 86 87 88 88 87 86 86 86 85
84 89 92 92 90 92 93 94 96 94 95 97 96 95 94 95 92 91 95 87 84 75 77 75 71 72 74 69 70 72 72 83 82 83 85 86 87 88 89 89 89 89 88
87 86 92 92 91 91 94 96 95 93 95 95 93 94 92 92 96 94 95 96 94 88 87 83 84 86 81 76 78 82 82 79 81 86 88 88 89 90 90 90 91 91 92
87 85 87 94 90 87 92 95 95 90 93 94 94 93 93 86 94 95 96 92 94 95 92 92 92 90 86 86 87 87 77 73 82 79 85 87 86 88 89 91 93 94 95
84 89 92 92 90 85 88 90 91 94 94 93 92 93 90 93 95 96 95 96 96 94 96 96 97 97 96 93 93 90 88 89 81 78 80 81 86 88 92 93 95 93 95
83 86 96 92 91 87 84 84 91 95 95 91 91 92 91 93 93 92 93 95 96 97 97 98 98 98 98 95 96 97 94 94 88 73 78 84 88 90 90 97 91 92 95
80 79 83 96 91 87 82 85 87 91 93 92 93 90 92 92 92 91 89 94 95 97 98 98 98 98 98 98 97 97 98 96 90 95 95 81 89 88 89 95 87 89 94
84 87 82 78 91 80 84 88 84 84 88 92 92 94 93 91 93 93 93 91 90 96 96 98 98 97 96 98 98 97 97 98 97 96 97 86 92 92 95 85 90 92 92
66 70 79 85 78 80 89 88 88 74 77 80 85 87 91 78 93 90 93 95 95 95 92 94 95 96 95 95 94 95 96 98 98 90 97 94 94 94 98 85 92 92 92
68 67 65 67 79 74 89 90 89 81 78 78 80 82 87 82 93 93 95 95 95 92 94 92 96 86 88 82 94 86 94 96 98 95 98 100 96 97 96 93 92 92 92
73 72 66 66 68 69 93 92 92 81 79 81 80 82 83 86 90 96 92 95 95 90 90 94 91 91 91 90 92 97 98 100 99 98 98 96 96 97 98 98 93 94 92
76 75 74 69 72 69 83 96 95 79 82 80 79 82 91 82 92 96 94 90 96 87 92 94 96 98 99 96 96 96 97 99 99 99 96 98 98 96 98 98 96 97 97

GFSMA_sfc_rhum_072.txt.gz
RH
95 94 92 93 88 90 85 82 88 80 84 78 75 77 76 80 81 83 86 76 78 71 70 71 70 72 72 73 72 69 70 71 72 69 69 73 78 78 79 79 78 78 77
94 94 92 90 92 90 91 85 87 82 84 78 78 76 78 79 83 85 83 82 78 78 74 73 72 74 72 69 70 74 72 69 69 73 77 79 79 79 79 79 78 78 71
90 93 92 92 90 90 86 85 87 82 79 74 81 77 77 79 79 84 84 83 80 78 77 74 72 74 72 69 68 69 69 73 78 79 78 78 79 79 80 80 78 80 64
89 92 93 92 87 86 87 85 82 82 80 76 77 76 76 76 78 81 82 81 81 78 84 81 78 75 72 69 69 71 74 77 78 79 78 80 80 80 78 79 80 79 62
89 95 92 91 90 91 87 80 83 82 79 76 72 76 74 73 72 63 76 78 78 78 76 80 83 83 74 70 70 71 74 79 83 82 81 81 80 78 77 79 81 78 64
86 94 90 90 90 85 82 79 82 80 78 78 61 68 76 75 76 74 70 66 71 73 71 77 76 73 83 77 76 77 77 76 81 82 84 84 82 79 78 81 82 78 67
88 89 91 88 88 86 86 80 78 78 77 78 77 75 73 72 72 76 74 72 73 71 73 75 77 75 74 82 82 81 78 77 76 78 82 86 85 82 82 83 84 79 72
91 88 90 92 84 85 85 84 82 83 79 77 77 78 76 69 63 64 73 72 72 72 72 74 76 80 79 77 77 81 82 81 78 74 78 83 86 86 84 84 86 82 80
90 91 90 94 88 91 85 81 80 82 78 80 76 77 76 74 76 67 67 68 73 71 71 74 74 76 78 75 77 77 84 87 82 79 76 80 84 87 86 84 85 85 83
89 89 90 92 92 90 88 83 83 84 81 78 80 71 78 74 71 70 66 68 69 65 67 69 67 70 75 74 76 82 86 88 87 82 80 79 79 83 86 86 84 85 84
88 88 88 89 91 89 91 88 86 89 87 81 80 81 79 76 77 73 72 70 69 67 68 69 67 68 69 70 71 77 85 86 88 89 87 85 82 79 78 82 83 84 83
91 90 88 91 89 90 90 88 87 86 90 93 85 85 79 73 72 75 75 76 73 70 64 66 69 68 67 66 64 75 80 85 88 89 89 88 85 81 76 76 78 80 82
93 91 90 92 96 90 89 91 91 88 87 86 90 81 82 79 74 76 75 75 74 70 69 66 66 69 60 68 66 76 78 84 85 86 87 88 87 87 85 83 80 79 80
86 88 89 89 90 90 88 91 87 87 88 85 86 90 83 80 80 76 73 72 72 70 70 69 68 66 69 69 72 82 67 84 84 85 88 89 89 89 89 88 87 85 84
80 86 89 89 89 90 90 92 88 90 93 90 89 88 85 82 80 78 80 73 72 70 69 66 67 66 68 68 71 66 69 82 85 87 87 88 89 90 90 90 90 90 89
86 89 89 90 90 92 90 92 91 90 91 89 86 90 90 84 82 80 82 78 76 72 71 69 66 68 69 63 68 72 70 85 86 88 89 90 90 90 89 91 92 92 92
89 88 90 88 90 91 92 95 92 90 90 91 89 90 89 88 83 82 83 86 82 76 77 75 74 75 78 79 76 75 74 74 70 87 88 87 88 89 90 93 94 95 93
89 88 88 90 89 88 90 90 90 85 89 88 87 90 87 78 89 90 85 89 86 86 80 89 83 78 82 80 81 84 74 64 72 73 86 87 88 90 94 95 94 94 94
86 85 88 89 90 88 90 89 88 88 88 87 86 87 86 86 88 86 88 86 85 84 87 87 86 86 82 79 80 82 82 82 69 78 81 84 88 90 96 93 94 95 96
84 84 85 86 87 88 87 87 87 87 87 86 87 87 86 86 88 87 85 89 86 89 91 91 90 87 86 83 84 85 79 76 75 63 74 82 91 93 94 92 93 93 96
82 82 84 86 86 86 79 88 87 87 87 87 87 86 85 86 92 89 80 88 91 89 89 90 92 90 89 86 87 83 88 79 78 79 76 69 70 73 81 86 82 87 92
86 87 84 83 86 76 88 91 88 86 88 88 88 88 87 91 91 94 95 94 90 92 93 92 90 90 90 91 86 86 86 88 86 80 82 75 72 74 78 69 87 90 92
85 87 85 83 84 84 89 92 92 82 85 86 88 87 84 73 91 84 93 95 96 95 95 88 90 88 90 86 87 90 90 90 86 76 85 78 76 77 73 65 90 90 91
79 83 84 85 82 78 89 92 90 83 83 83 83 85 85 83 86 85 84 84 84 84 87 81 88 85 85 85 88 83 88 91 89 80 87 96 72 76 81 73 89 88 93
79 77 75 82 84 80 88 91 92 81 81 84 83 82 83 85 91 97 86 88 87 85 88 97 93 93 94 94 90 86 86 93 85 76 84 85 79 92 93 78 76 91 92
82 74 75 77 79 78 86 91 92 75 77 75 82 87 93 84 94 98 90 87 89 84 81 81 85 93 96 90 97 88 80 91 90 91 86 92 90 95 90 84 77 75 73

GFSMA_sfc_rhum_075.txt.gz
RH
68 64 65 60 61 59 54 58 59 57 63 56 55 58 54 53 50 45 48 75 76 72 70 70 70 72 72 72 71 71 70 69 69 70 73 76 78 78 76 77 76 77 65
68 61 63 62 61 59 57 58 62 58 58 53 59 58 55 50 54 55 46 51 76 78 75 73 72 72 73 70 68 70 72 70 72 76 79 77 78 78 78 78 76 76 62
70 73 63 63 60 65 68 64 63 60 52 52 60 56 52 55 48 54 49 49 50 76 77 75 73 72 73 71 69 70 72 75 78 77 78 78 79 78 79 78 77 77 62
72 73 63 59 59 61 59 57 55 54 52 50 54 52 52 50 52 53 50 51 49 47 64 82 81 78 73 70 70 71 73 76 78 79 80 79 79 78 77 78 78 77 64
71 71 64 60 67 60 57 53 56 57 53 50 46 49 49 49 50 40 51 54 52 52 47 68 78 79 76 71 71 72 74 77 80 79 81 82 80 78 76 78 79 77 70
70 72 63 66 64 58 57 53 65 58 54 52 42 45 50 49 50 50 48 45 49 53 50 58 55 51 75 76 76 76 76 77 80 81 83 84 82 80 77 78 80 79 74
70 74 66 66 65 62 63 64 60 64 54 57 52 46 47 49 48 48 46 46 47 47 49 52 56 50 49 78 80 80 77 76 76 80 81 84 86 84 82 81 82 81 78
75 69 71 66 67 59 70 69 65 54 53 54 51 53 47 41 38 38 42 45 48 44 44 48 53 58 58 52 60 79 80 81 80 78 81 82 85 87 87 86 85 85 84
72 75 71 70 70 64 58 67 62 66 52 58 63 51 49 46 47 41 46 42 50 44 45 47 48 52 57 52 60 61 79 84 81 79 80 84 84 84 86 87 86 85 85
70 72 73 72 73 61 68 62 60 61 62 54 55 51 62 59 47 43 40 41 44 40 44 42 39 42 51 46 58 73 84 88 87 82 80 83 86 85 83 85 88 87 86
70 68 74 75 74 63 71 71 72 71 57 51 48 54 62 52 58 50 45 43 41 40 40 42 40 40 45 47 44 56 80 86 87 87 84 84 84 83 83 83 84 86 88
64 72 71 74 74 69 70 66 72 72 70 66 56 58 53 50 46 49 49 53 50 43 40 40 43 42 42 43 51 73 77 83 86 87 87 86 83 82 81 81 81 82 82
60 69 75 82 86 75 71 71 75 73 70 65 74 54 56 54 53 53 50 46 46 43 41 40 43 44 38 46 45 75 72 84 86 87 87 88 88 87 85 84 84 84 82
57 66 71 69 74 75 71 73 64 61 69 64 71 78 56 55 54 54 55 51 44 43 44 55 42 40 44 47 59 80 48 80 86 88 89 89 89 90 90 89 88 87 87
54 66 67 70 69 73 74 74 62 81 81 73 69 71 63 55 55 53 55 55 53 47 43 43 41 47 46 44 60 52 53 81 88 89 88 90 91 91 91 90 90 91 91
68 64 68 68 71 72 74 77 68 70 74 65 60 73 72 57 58 55 53 54 56 54 50 47 44 52 55 48 51 55 54 84 82 88 89 91 91 90 92 93 93 92 91
71 71 72 69 69 70 73 78 76 70 74 74 71 73 73 75 56 54 54 55 57 57 54 43 54 55 68 65 59 59 50 49 45 78 86 90 91 92 94 94 91 90 91
69 70 72 73 70 69 72 75 73 65 74 71 68 73 71 60 76 73 61 72 62 65 61 71 60 55 65 67 68 70 56 42 54 64 84 88 90 94 95 93 93 92 92
69 64 68 73 72 70 72 73 72 72 70 69 66 69 68 70 75 62 69 63 58 63 65 65 61 55 59 56 63 59 62 62 45 69 75 76 88 96 92 93 93 95 97
70 68 68 69 68 68 69 68 70 72 71 68 68 67 67 68 72 73 70 74 68 68 65 66 58 56 55 59 61 53 52 48 53 47 58 71 84 94 92 93 91 92 96
68 67 68 67 66 61 54 68 69 70 72 70 68 68 67 69 81 77 59 68 73 68 59 59 58 54 52 51 59 52 53 53 55 56 55 44 43 52 65 86 82 86 91
72 70 68 68 67 53 66 83 73 64 69 72 71 70 69 82 85 92 93 90 81 76 76 61 53 57 72 66 53 55 56 60 58 45 64 52 46 54 56 56 89 87 89
72 75 71 68 71 68 80 88 92 57 62 68 71 69 63 50 78 65 91 94 95 95 93 76 76 71 73 69 71 75 70 67 64 53 62 57 48 54 59 52 87 88 88
74 74 72 74 74 66 84 90 93 70 64 66 67 68 70 66 66 68 65 64 65 66 75 68 72 70 69 68 74 71 77 80 68 56 63 69 49 55 58 60 86 88 88
73 71 68 74 77 75 87 90 90 66 60 70 68 67 68 69 80 93 70 68 69 66 69 91 92 91 91 93 87 64 62 59 53 48 49 59 53 59 62 63 64 87 91
72 63 66 68 74 74 90 90 87 57 62 56 67 72 89 73 87 96 79 70 72 67 60 57 59 83 93 83 97 82 62 62 54 52 50 60 51 57 63 62 62 62 63